Location: Peyton Hall Observatory
(40.3466°N, 74.6516°W)
Time: 06:52:50
(UTC-04:00)

ISS - All Passes

Search period start: 24 July 2017 00:00
Search period end: 03 August 2017 00:00
Orbit: 400 x 408 km, 51.6° (Epoch: 24 July)

Date Brightness Start Highest point End Pass type
(mag) Time Alt. Az. Time Alt. Az. Time Alt. Az.
24 Jul - 01:14:02 10° NNW 01:15:13 12° N 01:16:26 10° NNE visible
24 Jul - 02:50:03 10° NNW 02:52:38 21° NNE 02:55:14 10° ENE visible
24 Jul - 04:26:07 10° WNW 04:29:21 63° SW 04:32:35 10° SE visible
24 Jul - 21:05:25 10° SW 21:08:34 49° SE 21:11:44 10° ENE visible
24 Jul - 22:42:30 10° W 22:45:12 24° NNW 22:47:55 10° NNE visible
25 Jul - 00:21:19 10° NNW 00:22:35 12° N 00:23:50 10° NNE visible
25 Jul - 01:57:58 10° NNW 02:00:06 16° NNE 02:02:14 10° ENE visible
25 Jul - 03:33:49 10° NW 03:37:04 66° NE 03:40:18 10° ESE visible
25 Jul - 05:11:36 10° W 05:13:09 13° SW 05:14:42 10° SSW visible
25 Jul - 20:13:39 10° SSW 20:16:23 25° SE 20:19:07 10° ENE daylight
25 Jul - 21:49:42 10° W 21:52:44 36° NNW 21:55:48 10° NE visible
25 Jul - 23:28:18 10° NW 23:29:56 13° N 23:31:34 10° NNE visible
26 Jul - 01:05:51 10° NNW 01:07:30 13° N 01:09:09 10° NE visible
26 Jul - 02:41:38 10° NW 02:44:41 37° NNE 02:47:45 10° E visible
26 Jul - 04:18:19 10° WNW 04:21:02 24° SW 04:23:45 10° S visible
26 Jul - 19:22:39 10° SSE 19:24:15 13° SE 19:25:51 10° E daylight
26 Jul - 20:57:07 10° WSW 21:00:21 65° NW 21:03:34 10° NE visible
26 Jul - 22:35:13 10° WNW 22:37:19 16° NNW 22:39:25 10° NNE visible
27 Jul - 00:13:35 10° NNW 00:14:51 12° N 00:16:07 10° NNE visible
27 Jul - 01:49:28 10° NNW 01:52:13 24° NNE 01:54:57 10° E visible
27 Jul - 03:25:40 10° WNW 03:28:50 48° SW 03:31:59 10° SE night (unlit)
27 Jul - 20:04:48 10° SW 20:08:01 64° SE 20:11:14 10° ENE daylight
27 Jul - 21:42:10 10° WNW 21:44:44 21° NNW 21:47:19 10° NNE visible
27 Jul - 23:20:59 10° NNW 23:22:10 11° N 23:23:21 10° NNE visible
28 Jul - 00:57:22 10° NNW 00:59:40 17° NNE 01:01:57 10° ENE visible
28 Jul - 02:33:16 10° NW 02:36:32 83° NE 02:39:48 10° SE night (unlit)
28 Jul - 04:12:24 10° SW 04:12:32 10° SW 04:12:39 10° SW night (unlit)
28 Jul - 19:12:50 10° SSW 19:15:46 31° SE 19:18:41 10° ENE daylight
28 Jul - 20:49:16 10° W 20:52:13 31° NNW 20:55:10 10° NE visible
28 Jul - 22:28:00 10° NW 22:29:28 12° N 22:30:57 10° NNE visible
29 Jul - 00:05:13 10° NNW 00:07:02 14° NNE 00:08:50 10° NE visible
29 Jul - 01:41:00 10° NW 01:44:09 44° NNE 01:47:17 10° ESE visible
29 Jul - 03:17:58 10° W 03:20:24 20° SW 03:22:50 10° S night (unlit)
29 Jul - 18:21:26 10° S 18:23:34 16° SE 18:25:42 10° E daylight
29 Jul - 19:56:34 10° WSW 19:59:45 52° NNW 20:02:57 10° NE daylight
29 Jul - 21:34:52 10° NW 21:36:48 15° NNW 21:38:45 10° NNE visible
29 Jul - 23:12:59 10° NNW 23:14:21 12° N 23:15:43 10° NNE visible
30 Jul - 00:48:48 10° NW 00:51:40 27° NNE 00:54:31 10° E visible
30 Jul - 02:25:08 10° WNW 02:28:11 38° SW 02:31:14 10° SSE night (unlit)
30 Jul - 19:04:07 10° SW 19:07:22 82° SE 19:10:37 10° NE daylight
30 Jul - 20:41:45 10° WNW 20:44:10 19° NNW 20:46:35 10° NNE visible
30 Jul - 22:20:28 10° NNW 22:21:38 11° N 22:22:47 10° NNE visible
30 Jul - 23:56:38 10° NNW 23:59:06 19° NNE 00:01:32 10° ENE visible
31 Jul - 01:32:37 10° NW 01:35:52 78° SW 01:39:07 10° SE night (unlit)
31 Jul - 18:11:59 10° SSW 18:15:02 39° SE 18:18:07 10° ENE daylight
31 Jul - 19:48:45 10° W 19:51:35 27° NNW 19:54:25 10° NE daylight
31 Jul - 21:27:33 10° NNW 21:28:54 12° N 21:30:14 10° NNE visible
31 Jul - 23:04:28 10° NNW 23:06:27 15° NNE 23:08:25 10° NE visible
01 Aug - 00:40:16 10° NW 00:43:29 54° NE 00:46:40 10° ESE visible
01 Aug - 02:17:35 10° W 02:19:38 16° SW 02:21:41 10° S night (unlit)
01 Aug - 17:20:17 10° S 17:22:47 20° SE 17:25:17 10° E daylight
01 Aug - 18:55:56 10° WSW 18:59:04 42° NNW 19:02:11 10° NE daylight
01 Aug - 20:34:24 10° NW 20:36:11 14° NNW 20:37:58 10° NNE daylight
01 Aug - 22:12:14 10° NNW 22:13:44 13° N 22:15:14 10° NE visible
01 Aug - 23:48:00 10° NW 23:50:59 32° NNE 23:53:56 10° E visible
02 Aug - 01:24:31 10° WNW 01:27:25 30° SW 01:30:18 10° SSE night (unlit)
02 Aug - 16:29:54 10° SE 16:30:35 10° SE 16:31:17 10° ESE daylight
02 Aug - 18:03:21 10° SW 18:06:36 80° NW 18:09:51 10° NE daylight
02 Aug - 19:41:14 10° WNW 19:43:29 17° NNW 19:45:45 10° NNE daylight
02 Aug - 21:19:47 10° NNW 21:20:59 11° N 21:22:11 10° NNE visible
02 Aug - 22:55:48 10° NNW 22:58:24 21° NNE 23:00:59 10° ENE visible
